Location: Manhattan
(39.1840°N, 96.5710°W)
Time: 15:37:14
(UTC-06:00)

ISS - Visible Passes

Search period start: 25 February 2018 00:00
Search period end: 07 March 2018 00:00
Orbit: 403 x 406 km, 51.6° (Epoch: 26 February)

Date Brightness Start Highest point End Pass type
(mag) Time Alt. Az. Time Alt. Az. Time Alt. Az.
25 Feb -2.0 06:22:51 10° SSW 06:25:49 32° SE 06:28:48 10° ENE visible
26 Feb -1.0 05:31:35 10° S 05:33:45 17° SE 05:35:57 10° E visible
27 Feb -3.8 06:14:27 10° SW 06:17:43 88° SE 06:20:59 10° NE visible
28 Feb -2.8 05:24:34 32° S 05:25:31 42° SE 05:28:38 10° ENE visible
01 Mar -0.8 04:34:51 16° E 04:34:51 16° E 04:35:58 10° E visible
01 Mar -3.1 06:07:32 17° W 06:09:42 38° NNW 06:12:48 10° NE visible
02 Mar -3.7 05:17:39 66° N 05:17:39 66° N 05:20:39 10° NE visible
03 Mar -0.7 04:27:39 15° ENE 04:27:39 15° ENE 04:28:20 10° ENE visible
03 Mar -2.1 06:00:19 16° WNW 06:01:48 21° NNW 06:04:23 10° NNE visible
04 Mar -2.3 05:10:12 27° N 05:10:12 27° N 05:12:20 10° NE visible
05 Mar -0.4 04:20:00 11° NE 04:20:00 11° NE 04:20:10 10° NE visible
05 Mar -1.5 05:52:39 12° NW 05:53:58 14° NNW 05:55:46 10° NNE visible
06 Mar -1.5 05:02:23 16° N 05:02:23 16° N 05:03:47 10° NNE visible
